Time,TemperatureF,DewpointF,PressureIn,WindDirection,WindDirectionDegrees,WindSpeedMPH,WindSpeedGustMPH,Humidity,HourlyPrecipIn,Conditions,Clouds,dailyrainin,SoftwareType,DateUTC
2013-04-02 00:01:00,33.0,16.0,-100.00,NW,310,23.0,26.0,47,-99.99,,,-99.99,,2013-04-02 05:01:00,
2013-04-02 00:11:00,33.0,16.0,-100.00,NW,310,23.0,26.0,47,-99.99,,,-99.99,,2013-04-02 05:11:00,
2013-04-02 00:22:00,33.0,17.0,-100.00,NW,310,22.0,26.0,49,-99.99,,,-99.99,,2013-04-02 05:22:00,
2013-04-02 00:31:00,33.0,15.0,-100.00,WNW,300,22.0,26.0,47,-99.99,,,-99.99,,2013-04-02 05:31:00,
2013-04-02 00:42:00,33.0,14.0,-100.00,NW,320,25.0,29.0,45,-99.99,,,-99.99,,2013-04-02 05:42:00,
2013-04-02 00:52:00,33.0,14.0,-100.00,NW,320,25.0,29.0,45,-99.99,,,-99.99,,2013-04-02 05:52:00,
2013-04-02 01:01:00,33.0,14.0,-100.00,NW,310,22.0,28.0,45,-99.99,,,-99.99,,2013-04-02 06:01:00,
2013-04-02 01:11:00,33.0,14.0,-100.00,NW,310,22.0,28.0,45,-99.99,,,-99.99,,2013-04-02 06:11:00,
2013-04-02 01:21:00,33.0,12.0,-100.00,NW,310,21.0,28.0,41,-99.99,,,-99.99,,2013-04-02 06:21:00,
2013-04-02 01:31:00,33.0,15.0,-100.00,NW,310,22.0,25.0,47,-99.99,,,-99.99,,2013-04-02 06:31:00,
2013-04-02 01:41:00,33.0,15.0,-100.00,NW,320,22.0,26.0,47,-99.99,,,-99.99,,2013-04-02 06:41:00,
2013-04-02 01:52:00,33.0,15.0,-100.00,NW,320,22.0,26.0,47,-99.99,,,-99.99,,2013-04-02 06:52:00,
2013-04-02 02:01:00,32.0,15.0,-100.00,NW,310,21.0,25.0,47,-99.99,,,-99.99,,2013-04-02 07:01:00,
2013-04-02 02:11:00,32.0,15.0,-100.00,NW,310,21.0,25.0,47,-99.99,,,-99.99,,2013-04-02 07:11:00,
2013-04-02 02:21:00,32.0,14.0,-100.00,WNW,300,18.0,24.0,46,-99.99,,,-99.99,,2013-04-02 07:21:00,
2013-04-02 02:31:00,32.0,14.0,-100.00,NW,320,21.0,24.0,46,-99.99,,,-99.99,,2013-04-02 07:31:00,
2013-04-02 02:41:00,32.0,13.0,-100.00,NW,310,17.0,21.0,45,-99.99,,,-99.99,,2013-04-02 07:41:00,
2013-04-02 02:52:00,32.0,13.0,-100.00,NW,310,17.0,21.0,45,-99.99,,,-99.99,,2013-04-02 07:52:00,
2013-04-02 03:01:00,32.0,15.0,-100.00,NW,310,20.0,24.0,48,-99.99,,,-99.99,,2013-04-02 08:01:00,
2013-04-02 03:21:00,32.0,16.0,-100.00,NW,320,22.0,24.0,50,-99.99,,,-99.99,,2013-04-02 08:21:00,
2013-04-02 03:31:00,32.0,17.0,-100.00,NW,310,20.0,25.0,54,-99.99,,,-99.99,,2013-04-02 08:31:00,
2013-04-02 03:41:00,31.0,16.0,-100.00,NW,320,22.0,25.0,51,-99.99,,,-99.99,,2013-04-02 08:41:00,
2013-04-02 03:51:00,31.0,16.0,-100.00,NW,320,22.0,25.0,51,-99.99,,,-99.99,,2013-04-02 08:51:00,
2013-04-02 04:01:00,31.0,17.0,-100.00,NW,320,22.0,25.0,54,-99.99,,,-99.99,,2013-04-02 09:01:00,
2013-04-02 04:11:00,31.0,17.0,-100.00,NW,320,22.0,25.0,54,-99.99,,,-99.99,,2013-04-02 09:11:00,
2013-04-02 04:21:00,31.0,16.0,-100.00,NW,310,21.0,25.0,53,-99.99,,,-99.99,,2013-04-02 09:21:00,
2013-04-02 04:32:00,31.0,17.0,-100.00,NW,310,18.0,25.0,54,-99.99,,,-99.99,,2013-04-02 09:32:00,
2013-04-02 04:42:00,31.0,18.0,-100.00,NW,310,18.0,24.0,57,-99.99,,,-99.99,,2013-04-02 09:42:00,
2013-04-02 04:52:00,31.0,18.0,-100.00,NW,310,18.0,24.0,57,-99.99,,,-99.99,,2013-04-02 09:52:00,
2013-04-02 05:02:00,31.0,18.0,-100.00,NW,320,21.0,25.0,58,-99.99,,,-99.99,,2013-04-02 10:02:00,
2013-04-02 05:12:00,31.0,18.0,-100.00,NW,320,21.0,24.0,56,-99.99,,,-99.99,,2013-04-02 10:12:00,
2013-04-02 05:22:00,31.0,18.0,-100.00,NW,320,21.0,24.0,56,-99.99,,,-99.99,,2013-04-02 10:22:00,
2013-04-02 05:32:00,31.0,18.0,-100.00,NW,310,21.0,25.0,57,-99.99,,,-99.99,,2013-04-02 10:32:00,
2013-04-02 05:41:00,31.0,19.0,-100.00,NW,310,18.0,22.0,60,-99.99,,,-99.99,,2013-04-02 10:41:00,
2013-04-02 05:52:00,31.0,19.0,-100.00,NW,310,18.0,22.0,60,-99.99,,,-99.99,,2013-04-02 10:52:00,
2013-04-02 06:02:00,31.0,19.0,-100.00,WNW,300,16.0,21.0,60,-99.99,,,-99.99,,2013-04-02 11:02:00,
2013-04-02 06:21:00,31.0,19.0,-100.00,WNW,300,17.0,21.0,60,-99.99,,,-99.99,,2013-04-02 11:21:00,
2013-04-02 06:32:00,31.0,19.0,-100.00,NW,310,17.0,20.0,60,-99.99,,,-99.99,,2013-04-02 11:32:00,
2013-04-02 06:42:00,31.0,19.0,-100.00,WNW,300,17.0,21.0,60,-99.99,,,-99.99,,2013-04-02 11:42:00,
2013-04-02 06:52:00,31.0,19.0,-100.00,WNW,300,17.0,21.0,60,-99.99,,,-99.99,,2013-04-02 11:52:00,
2013-04-02 07:11:00,31.0,19.0,-100.00,WNW,290,15.0,20.0,60,-99.99,,,-99.99,,2013-04-02 12:11:00,
2013-04-02 07:21:00,31.0,19.0,-100.00,WNW,290,15.0,20.0,60,-99.99,,,-99.99,,2013-04-02 12:21:00,
2013-04-02 07:31:00,31.0,19.0,-100.00,WNW,290,15.0,18.0,60,-99.99,,,-99.99,,2013-04-02 12:31:00,
2013-04-02 07:41:00,31.0,19.0,-100.00,WNW,290,16.0,20.0,58,-99.99,,,-99.99,,2013-04-02 12:41:00,
2013-04-02 07:52:00,31.0,19.0,-100.00,West,280,17.0,23.0,59,-99.99,,,-99.99,,2013-04-02 12:52:00,
2013-04-02 08:01:00,31.0,19.0,-100.00,West,280,17.0,23.0,59,-99.99,,,-99.99,,2013-04-02 13:01:00,
2013-04-02 08:11:00,32.0,18.0,-100.00,WNW,290,16.0,20.0,57,-99.99,,,-99.99,,2013-04-02 13:11:00,
2013-04-02 08:21:00,32.0,18.0,-100.00,WNW,290,16.0,20.0,57,-99.99,,,-99.99,,2013-04-02 13:21:00,
2013-04-02 08:31:00,32.0,19.0,-100.00,West,280,17.0,20.0,59,-99.99,,,-99.99,,2013-04-02 13:31:00,
2013-04-02 08:42:00,31.0,20.0,-100.00,West,280,16.0,20.0,61,-99.99,,,-99.99,,2013-04-02 13:42:00,
2013-04-02 08:52:00,31.0,19.0,-100.00,West,270,16.0,20.0,61,-99.99,,,-99.99,,2013-04-02 13:52:00,
2013-04-02 09:01:00,31.0,19.0,-100.00,West,270,16.0,20.0,61,-99.99,,,-99.99,,2013-04-02 14:01:00,
2013-04-02 09:42:00,31.0,21.0,-100.00,West,270,16.0,20.0,65,-99.99,,,-99.99,,2013-04-02 14:42:00,
2013-04-02 09:51:00,31.0,21.0,-100.00,West,270,16.0,20.0,65,-99.99,,,-99.99,,2013-04-02 14:51:00,
2013-04-02 10:01:00,30.0,20.0,-100.00,West,270,16.0,20.0,64,-99.99,,,-99.99,,2013-04-02 15:01:00,
2013-04-02 10:21:00,30.0,19.0,-100.00,West,270,16.0,20.0,63,-99.99,,,-99.99,,2013-04-02 15:21:00,
2013-04-02 10:33:00,30.0,19.0,-100.00,West,270,16.0,20.0,63,-99.99,,,-99.99,,2013-04-02 15:33:00,
2013-04-02 10:42:00,31.0,19.0,-100.00,West,270,15.0,17.0,62,-99.99,,,-99.99,,2013-04-02 15:42:00,
2013-04-02 11:02:00,31.0,20.0,-100.00,West,270,15.0,17.0,62,-99.99,,,-99.99,,2013-04-02 16:02:00,
2013-04-02 11:12:00,31.0,20.0,-100.00,West,270,15.0,17.0,62,-99.99,,,-99.99,,2013-04-02 16:12:00,
2013-04-02 11:32:00,31.0,19.0,-100.00,West,260,14.0,16.0,61,-99.99,,,-99.99,,2013-04-02 16:32:00,
2013-04-02 11:42:00,31.0,20.0,-100.00,West,270,11.0,14.0,61,-99.99,,,-99.99,,2013-04-02 16:42:00,
2013-04-02 11:52:00,31.0,20.0,-100.00,West,270,11.0,14.0,61,-99.99,,,-99.99,,2013-04-02 16:52:00,
2013-04-02 12:02:00,32.0,18.0,-100.00,West,270,11.0,14.0,57,-99.99,,,-99.99,,2013-04-02 17:02:00,
2013-04-02 12:11:00,32.0,18.0,-100.00,West,260,10.0,13.0,56,-99.99,,,-99.99,,2013-04-02 17:11:00,
2013-04-02 12:22:00,31.0,18.0,-100.00,West,260,10.0,13.0,57,-99.99,,,-99.99,,2013-04-02 17:22:00,
2013-04-02 12:41:00,32.0,19.0,-100.00,West,260,8.0,10.0,57,-99.99,,,-99.99,,2013-04-02 17:41:00,
2013-04-02 12:52:00,32.0,19.0,-100.00,West,260,8.0,10.0,57,-99.99,,,-99.99,,2013-04-02 17:52:00,
2013-04-02 13:01:00,33.0,17.0,-100.00,West,270,8.0,9.0,52,-99.99,,,-99.99,,2013-04-02 18:01:00,
2013-04-02 13:12:00,34.0,18.0,-100.00,West,270,5.0,7.0,51,-99.99,,,-99.99,,2013-04-02 18:12:00,
2013-04-02 13:31:00,36.0,16.0,-100.00,West,280,5.0,7.0,44,-99.99,,,-99.99,,2013-04-02 18:31:00,
2013-04-02 13:42:00,37.0,16.0,-100.00,NW,320,5.0,7.0,42,-99.99,,,-99.99,,2013-04-02 18:42:00,
2013-04-02 13:52:00,37.0,16.0,-100.00,NW,320,5.0,7.0,42,-99.99,,,-99.99,,2013-04-02 18:52:00,
2013-04-02 14:01:00,37.0,17.0,-100.00,NNW,340,6.0,7.0,44,-99.99,,,-99.99,,2013-04-02 19:01:00,
2013-04-02 14:11:00,37.0,17.0,-100.00,North,350,6.0,7.0,42,-99.99,,,-99.99,,2013-04-02 19:11:00,
2013-04-02 14:21:00,37.0,17.0,-100.00,North,350,6.0,7.0,42,-99.99,,,-99.99,,2013-04-02 19:21:00,
2013-04-02 14:31:00,37.0,19.0,-100.00,North,360,6.0,7.0,46,-99.99,,,-99.99,,2013-04-02 19:31:00,
2013-04-02 14:42:00,39.0,17.0,-100.00,North,360,5.0,6.0,41,-99.99,,,-99.99,,2013-04-02 19:42:00,
2013-04-02 14:52:00,39.0,17.0,-100.00,North,360,5.0,6.0,41,-99.99,,,-99.99,,2013-04-02 19:52:00,
2013-04-02 15:02:00,39.0,18.0,-100.00,North,360,5.0,6.0,43,-99.99,,,-99.99,,2013-04-02 20:02:00,
2013-04-02 15:11:00,38.0,18.0,-100.00,North,10,7.0,9.0,42,-99.99,,,-99.99,,2013-04-02 20:11:00,
2013-04-02 15:21:00,38.0,18.0,-100.00,North,10,8.0,9.0,43,-99.99,,,-99.99,,2013-04-02 20:21:00,
2013-04-02 15:31:00,38.0,18.0,-100.00,North,10,8.0,9.0,43,-99.99,,,-99.99,,2013-04-02 20:31:00,
2013-04-02 15:41:00,38.0,16.0,-100.00,North,10,8.0,9.0,40,-99.99,,,-99.99,,2013-04-02 20:41:00,
2013-04-02 15:52:00,38.0,16.0,-100.00,North,10,8.0,9.0,40,-99.99,,,-99.99,,2013-04-02 20:52:00,
2013-04-02 16:01:00,37.0,18.0,-100.00,North,10,9.0,10.0,45,-99.99,,,-99.99,,2013-04-02 21:01:00,
2013-04-02 16:21:00,38.0,19.0,-100.00,North,10,8.0,9.0,45,-99.99,,,-99.99,,2013-04-02 21:21:00,
2013-04-02 16:42:00,38.0,20.0,-100.00,North,10,8.0,10.0,46,-99.99,,,-99.99,,2013-04-02 21:42:00,
2013-04-02 16:53:00,38.0,20.0,-100.00,North,10,8.0,10.0,46,-99.99,,,-99.99,,2013-04-02 21:53:00,
2013-04-02 17:02:00,38.0,18.0,-100.00,North,10,8.0,9.0,44,-99.99,,,-99.99,,2013-04-02 22:02:00,
2013-04-02 17:12:00,39.0,19.0,-100.00,North,10,8.0,8.0,44,-99.99,,,-99.99,,2013-04-02 22:12:00,
2013-04-02 17:22:00,39.0,19.0,-100.00,North,10,8.0,8.0,44,-99.99,,,-99.99,,2013-04-02 22:22:00,
2013-04-02 17:32:00,37.0,18.0,-100.00,NNE,20,7.0,8.0,45,-99.99,,,-99.99,,2013-04-02 22:32:00,
2013-04-02 17:42:00,37.0,20.0,-100.00,NNE,20,7.0,8.0,48,-99.99,,,-99.99,,2013-04-02 22:42:00,
2013-04-02 17:52:00,37.0,20.0,-100.00,NNE,20,7.0,8.0,48,-99.99,,,-99.99,,2013-04-02 22:52:00,
2013-04-02 18:02:00,35.0,18.0,-100.00,NNE,30,7.0,8.0,50,-99.99,,,-99.99,,2013-04-02 23:02:00,
2013-04-02 18:21:00,35.0,17.0,-100.00,NE,40,5.0,6.0,47,-99.99,,,-99.99,,2013-04-02 23:21:00,
2013-04-02 18:41:00,38.0,19.0,-100.00,NNE,20,5.0,6.0,45,-99.99,,,-99.99,,2013-04-02 23:41:00,
2013-04-02 18:52:00,38.0,19.0,-100.00,NNE,20,5.0,6.0,45,-99.99,,,-99.99,,2013-04-02 23:52:00,
2013-04-02 19:01:00,38.0,19.0,-100.00,NNE,20,5.0,6.0,46,-99.99,,,-99.99,,2013-04-03 00:01:00,
2013-04-02 19:11:00,35.0,17.0,-100.00,NNE,30,5.0,6.0,47,-99.99,,,-99.99,,2013-04-03 00:11:00,
2013-04-02 19:31:00,36.0,19.0,-100.00,NNE,20,3.0,5.0,49,-99.99,,,-99.99,,2013-04-03 00:31:00,
2013-04-02 19:43:00,36.0,19.0,-100.00,NNE,20,3.0,5.0,49,-99.99,,,-99.99,,2013-04-03 00:43:00,
2013-04-02 19:52:00,36.0,19.0,-100.00,NNE,20,3.0,5.0,49,-99.99,,,-99.99,,2013-04-03 00:52:00,
2013-04-02 20:02:00,35.0,19.0,-100.00,NNE,20,5.0,6.0,51,-99.99,,,-99.99,,2013-04-03 01:02:00,
2013-04-02 20:11:00,35.0,19.0,-100.00,NNE,20,5.0,6.0,51,-99.99,,,-99.99,,2013-04-03 01:11:00,
2013-04-02 20:21:00,35.0,20.0,-100.00,NNE,20,5.0,6.0,55,-99.99,,,-99.99,,2013-04-03 01:21:00,
2013-04-02 20:31:00,35.0,19.0,-100.00,North,10,6.0,8.0,51,-99.99,,,-99.99,,2013-04-03 01:31:00,
2013-04-02 20:41:00,34.0,19.0,-100.00,NNE,20,8.0,10.0,52,-99.99,,,-99.99,,2013-04-03 01:41:00,
2013-04-02 20:51:00,34.0,19.0,-100.00,NNE,20,8.0,10.0,52,-99.99,,,-99.99,,2013-04-03 01:51:00,
2013-04-02 21:01:00,34.0,20.0,-100.00,NNE,20,7.0,8.0,54,-99.99,,,-99.99,,2013-04-03 02:01:00,
2013-04-02 21:21:00,34.0,20.0,-100.00,NNE,20,6.0,7.0,55,-99.99,,,-99.99,,2013-04-03 02:21:00,
2013-04-02 21:31:00,34.0,19.0,-100.00,NE,40,5.0,6.0,54,-99.99,,,-99.99,,2013-04-03 02:31:00,
2013-04-02 21:41:00,33.0,19.0,-100.00,NE,50,3.0,6.0,54,-99.99,,,-99.99,,2013-04-03 02:41:00,
2013-04-02 21:52:00,33.0,18.0,-100.00,ENE,60,3.0,3.0,53,-99.99,,,-99.99,,2013-04-03 02:52:00,
2013-04-02 22:01:00,33.0,18.0,-100.00,ENE,60,3.0,3.0,53,-99.99,,,-99.99,,2013-04-03 03:01:00,
2013-04-02 22:42:00,33.0,19.0,-100.00,East,80,3.0,5.0,57,-99.99,,,-99.99,,2013-04-03 03:42:00,
2013-04-02 22:52:00,33.0,19.0,-100.00,East,80,3.0,5.0,57,-99.99,,,-99.99,,2013-04-03 03:52:00,
2013-04-02 23:02:00,33.0,20.0,-100.00,East,80,2.0,3.0,57,-99.99,,,-99.99,,2013-04-03 04:02:00,
2013-04-02 23:12:00,33.0,20.0,-100.00,ESE,120,2.0,2.0,58,-99.99,,,-99.99,,2013-04-03 04:12:00,
2013-04-02 23:23:00,33.0,20.0,-100.00,ESE,120,2.0,2.0,58,-99.99,,,-99.99,,2013-04-03 04:23:00,
2013-04-02 23:32:00,33.0,18.0,-100.00,SE,140,3.0,5.0,55,-99.99,,,-99.99,,2013-04-03 04:32:00,
2013-04-02 23:42:00,32.0,18.0,-100.00,South,170,3.0,5.0,56,-99.99,,,-99.99,,2013-04-03 04:42:00,
2013-04-02 23:53:00,32.0,18.0,-100.00,South,170,3.0,5.0,56,-99.99,,,-99.99,,2013-04-03 04:53:00,